Location: Curupao
(10.4996°N, 66.6442°W)
Time: 22:50:41
(UTC+00:00)

Cosmos 2333 - Pass Details

Date: 23 May 2024
Orbit: 828 x 866 km, 70.9° (Epoch: 25 June)

Event Time Altitude Azimuth Distance (km) Brightness Sun altitude
Rises 08:43:00 0° 333° (NNW) 3,427 7.4 -19.0°
Reaches altitude 10° 08:45:32 10° 327° (NNW) 2,494 6.6 -18.5°
Maximum altitude 08:50:59 45° 256° (WSW) 1,154 4.5 -17.2°
Drops below altitude 10° 08:56:27 10° 184° (S) 2,500 6.4 -16.0°
Sets 08:59:01 0° 178° (S) 3,436 7.1 -15.5°
